Wind_Speed
14 15 16 16 15 15 14 14 13 14 16 17 16 15 13 13 13 12 11 10 8 7 6 5 4 3 3 3 3 4 4 4 5 7 9 10 10 10 11 10 9 11 11 11 11 11 12 15 17 19 19 19 19 19 20 21 22 24 24 24 24 24 24 21 20 26 30 30 31 31 30 31 32 31 31 31 30 29 28 25 22 21 21 22 23
13 14 16 16 16 15 15 15 15 15 16 16 15 14 13 14 14 13 12 11 8 7 6 5 5 4 4 4 5 5 5 5 5 6 9 11 12 12 12 11 11 13 13 13 14 14 14 17 20 21 20 21 22 22 23 24 25 26 27 26 26 25 25 23 21 24 29 31 32 32 31 32 32 31 32 34 33 31 30 28 26 24 22 21 22
15 17 18 18 18 18 17 17 16 15 15 15 14 14 14 14 13 12 12 11 9 7 5 6 6 5 5 6 6 6 6 6 5 6 9 11 13 13 11 11 12 14 15 14 14 15 17 19 21 22 24 26 26 25 26 27 27 29 29 27 27 26 26 25 23 23 27 30 31 33 34 34 34 34 35 36 35 34 33 32 29 28 25 23 23
19 21 22 21 20 19 19 18 17 15 16 17 16 16 15 14 13 12 11 10 9 7 6 7 7 6 7 7 7 8 8 8 6 5 8 12 13 12 10 10 12 13 13 12 13 17 20 21 22 25 28 29 28 28 28 29 30 29 28 27 27 26 27 26 24 24 25 27 30 32 32 33 34 36 38 39 38 37 37 35 33 32 30 27 25
21 22 23 22 21 20 20 19 18 17 18 19 18 17 16 16 15 14 12 10 9 9 8 8 8 7 8 8 8 9 9 9 8 7 9 11 13 12 10 11 12 12 11 11 14 19 21 21 24 29 31 30 30 31 31 30 29 28 28 28 28 27 28 28 28 27 26 28 32 33 32 33 35 36 37 38 40 41 40 38 36 35 34 32 29
20 21 23 23 21 20 20 20 20 20 20 19 18 17 16 16 16 15 13 10 8 10 10 10 9 9 9 9 9 10 10 11 10 8 9 10 11 12 11 10 12 11 10 13 17 20 21 22 26 31 32 31 31 31 30 29 28 28 29 29 30 29 29 29 29 29 28 29 32 33 33 33 34 34 33 34 37 40 41 40 38 38 37 36 34
22 22 24 24 22 20 20 21 21 21 21 20 19 18 16 15 15 14 13 10 9 11 11 10 10 10 10 10 10 11 11 11 10 9 9 9 10 12 12 11 12 11 12 15 19 21 23 24 27 30 31 30 29 28 29 29 28 28 30 32 32 31 30 29 29 30 29 29 30 31 32 32 31 30 30 31 33 34 36 38 41 42 41 40 39
25 24 23 23 22 22 22 23 22 22 21 20 19 18 18 17 16 14 12 10 11 12 11 11 11 11 11 11 11 12 12 12 11 9 9 9 9 11 13 13 13 12 14 19 19 21 24 25 26 29 28 27 27 27 29 31 29 28 30 32 33 32 32 30 29 30 31 30 31 33 34 35 35 33 32 33 34 34 34 36 40 42 43 44 45
25 24 24 23 23 23 23 23 22 21 20 19 19 19 19 19 18 16 13 11 12 13 12 12 12 12 12 12 12 12 12 12 12 10 9 9 9 12 14 14 13 13 15 20 20 20 25 26 26 27 26 24 25 26 28 30 30 29 30 32 34 33 32 32 30 30 31 31 33 37 37 39 40 39 38 37 37 37 37 37 38 40 41 45 48
25 25 25 25 25 24 23 23 21 20 20 19 19 20 20 20 19 18 15 12 12 13 12 12 13 12 12 12 12 12 13 13 12 10 9 9 10 13 14 13 14 14 14 18 19 20 24 25 25 27 26 23 24 25 26 27 28 29 30 32 35 34 33 32 31 31 33 33 36 39 39 41 43 42 41 41 40 40 39 38 39 40 39 43 49
26 26 26 25 24 23 23 22 21 20 20 19 19 19 20 20 19 18 15 12 13 14 12 12 13 13 12 12 12 13 14 14 12 10 10 10 11 13 14 14 15 14 11 15 18 18 22 24 25 28 27 23 23 25 25 26 27 28 28 30 33 34 32 31 32 33 35 36 38 41 41 42 43 43 42 42 41 40 40 40 39 39 38 40 46
27 26 26 25 24 23 22 22 21 21 20 19 18 17 18 18 18 17 15 13 13 14 13 12 13 13 12 12 12 14 14 13 12 10 10 11 12 13 15 15 15 13 9 12 15 16 21 25 25 27 27 23 23 25 26 27 28 28 29 29 31 33 31 30 33 36 37 38 39 41 43 43 43 43 43 42 42 40 40 39 39 39 38 39 42
27 27 27 25 24 23 22 22 21 20 18 17 16 16 16 17 17 16 15 13 12 13 14 13 13 13 12 12 12 13 14 14 12 11 10 11 12 13 14 12 13 12 9 10 13 15 20 24 24 26 26 22 23 25 27 29 30 30 31 30 30 32 32 31 34 38 39 39 40 41 42 43 44 44 43 41 41 41 40 40 39 39 39 39 42
27 27 26 25 24 23 21 20 19 18 17 17 16 16 16 16 16 15 14 13 11 11 13 14 13 13 12 12 12 13 14 14 13 11 10 9 9 10 11 9 8 8 8 10 12 16 20 22 23 25 24 22 23 25 27 30 32 32 33 33 32 33 35 35 36 38 39 40 41 41 42 42 43 44 43 40 39 40 40 40 39 38 38 39 41
28 27 26 25 23 21 18 18 18 19 19 19 19 19 18 17 17 15 14 13 11 10 12 13 13 12 12 12 12 13 14 14 13 12 11 9 8 7 8 8 7 5 7 9 10 15 20 21 22 23 21 20 22 24 26 29 31 32 32 33 34 34 36 37 37 37 38 39 41 42 43 43 44 44 43 40 39 38 38 37 36 36 36 36 38
29 28 26 24 21 19 19 20 21 21 21 21 21 20 19 18 17 16 15 14 12 11 12 13 13 12 12 12 12 13 14 14 13 12 11 10 9 7 7 7 6 4 5 8 9 13 18 19 21 21 21 20 20 22 24 27 30 31 31 33 33 34 35 36 35 35 36 38 41 42 43 44 45 46 45 41 39 38 37 36 35 33 32 33 36
29 27 24 22 21 21 23 24 24 23 23 22 21 21 20 18 17 16 16 15 15 14 14 14 13 12 12 12 12 13 14 14 14 13 11 10 9 8 8 7 6 5 4 7 10 12 15 18 18 19 22 22 20 22 23 26 29 30 30 33 33 33 35 35 35 35 35 37 41 43 44 46 46 47 47 44 41 38 36 37 37 34 32 32 35
27 25 23 23 24 24 24 23 23 23 23 22 22 21 20 19 18 17 16 16 16 15 15 15 15 13 13 13 13 14 14 14 14 13 12 11 10 9 9 6 5 5 3 3 7 9 12 15 15 18 22 22 20 22 23 24 28 29 30 32 33 33 35 36 36 36 35 37 40 43 45 47 49 49 49 46 42 38 36 37 37 36 34 33 33
25 24 24 24 24 24 23 22 22 23 23 23 22 21 20 19 18 17 16 16 16 16 15 15 15 14 14 15 14 13 14 14 14 14 13 11 11 10 10 8 6 5 3 3 6 8 9 13 15 19 22 21 20 22 22 23 27 29 29 31 33 33 34 35 36 35 35 37 41 44 47 49 50 51 50 48 43 39 36 36 37 37 36 33 31
25 26 25 24 23 23 23 23 23 24 24 24 23 21 19 17 16 15 14 15 16 16 15 15 15 15 15 15 14 13 13 13 14 14 13 12 11 11 10 10 9 7 7 8 11 13 15 17 19 21 23 23 21 20 21 22 26 28 29 30 32 32 32 34 35 33 35 38 41 43 47 50 51 53 52 50 46 41 38 37 36 37 37 34 29
27 26 25 24 24 23 23 23 24 24 24 24 23 20 17 16 14 12 12 13 14 14 13 14 14 15 14 14 13 12 12 13 13 13 12 12 11 11 11 11 10 9 9 11 15 17 18 20 21 22 24 25 22 19 20 22 24 27 27 27 29 32 32 33 34 32 34 39 41 43 47 50 52 54 53 52 48 44 41 38 36 37 36 32 26
28 26 26 25 25 24 24 24 25 25 25 24 23 20 18 16 15 13 12 12 12 11 12 12 12 12 12 12 11 11 11 12 12 11 11 11 11 11 11 11 9 9 10 13 16 17 18 19 21 22 23 25 24 20 19 21 24 26 24 23 28 32 33 33 32 32 35 39 41 44 47 49 52 54 54 53 51 46 43 41 39 37 33 26 20
28 28 27 27 26 25 24 25 25 26 25 23 22 21 19 18 16 13 12 12 11 10 10 10 9 8 8 8 9 10 11 11 11 10 10 11 11 11 11 11 10 10 11 13 16 17 18 18 20 20 21 24 25 22 19 21 25 27 23 22 28 33 34 33 31 32 35 39 41 44 46 48 50 52 53 53 52 49 46 43 42 40 34 26 17
30 30 29 28 27 26 25 26 26 25 25 24 22 21 19 17 15 13 12 12 11 10 9 7 6 4 3 4 6 8 9 9 9 9 9 10 10 10 11 11 11 11 12 14 15 16 17 18 18 19 21 23 24 23 21 23 27 29 25 23 28 33 35 33 31 32 36 39 41 44 46 47 48 49 51 52 52 52 49 46 44 43 39 33 24
32 31 29 28 28 27 26 26 25 25 24 24 23 21 18 16 14 12 10 10 9 8 8 6 4 3 0 2 4 6 7 8 8 8 9 9 10 10 10 11 11 12 13 14 15 15 16 17 17 18 21 23 23 23 24 24 26 28 26 25 28 33 35 33 31 32 36 38 40 43 44 46 47 48 50 52 52 53 52 49 48 46 43 41 34
32 31 29 28 27 27 27 26 25 24 23 22 21 19 17 15 14 12 11 9 8 7 8 7 6 4 2 2 2 3 4 5 6 7 8 9 9 9 10 10 11 12 13 15 15 15 16 17 18 18 21 22 22 22 24 24 25 27 27 26 29 32 33 32 31 32 35 37 39 41 43 44 45 48 51 52 52 53 53 51 50 49 48 47 43
33 31 29 28 28 28 28 27 26 25 23 22 20 18 15 15 15 14 13 12 10 9 8 8 8 7 6 4 2 1 2 3 5 6 7 8 8 9 10 10 10 11 13 15 16 17 17 18 18 18 20 21 20 21 22 23 25 27 27 27 30 31 32 31 30 29 32 34 36 39 41 42 44 47 50 52 53 53 53 50 49 49 49 49 49
32 30 29 29 29 29 28 27 26 24 21 20 18 16 15 15 15 14 13 13 13 12 11 10 10 10 9 7 3 1 2 3 4 5 6 8 8 8 10 11 11 12 13 15 16 17 18 18 18 18 20 21 21 21 22 23 24 26 27 27 29 31 31 30 29 27 29 32 34 37 40 42 44 46 49 51 53 53 53 51 49 48 49 49 50
32 29 29 30 30 29 28 27 25 22 20 19 18 17 16 15 15 14 13 13 13 13 13 12 9 8 9 7 3 1 2 2 3 4 6 6 6 7 9 12 13 15 15 14 15 16 18 19 19 19 21 22 22 22 24 24 24 25 26 27 29 30 31 31 30 28 28 30 33 36 39 41 43 44 47 50 52 53 53 53 50 48 49 50 50
31 29 30 30 30 29 29 27 24 22 21 21 20 19 18 17 16 15 14 14 14 12 11 10 8 6 6 6 4 2 2 2 3 4 5 6 5 6 9 12 13 15 15 14 13 14 16 19 20 20 21 22 22 22 23 25 25 25 25 26 28 29 31 31 30 28 28 29 32 35 37 40 41 43 45 47 51 52 52 52 52 50 49 49 49
32 31 31 31 29 29 29 27 24 23 21 19 19 20 18 17 17 17 16 16 15 13 11 9 7 6 6 5 4 3 3 3 3 4 5 5 4 6 9 11 11 11 13 14 13 12 14 17 19 19 20 21 20 20 22 24 25 25 25 26 27 28 30 31 30 28 27 28 30 33 36 38 39 41 43 44 47 50 52 52 52 51 49 47 47
33 34 33 31 30 29 28 26 23 21 20 18 18 19 16 14 14 17 18 17 16 14 11 9 8 7 7 6 5 4 3 2 2 3 4 4 3 5 8 9 9 9 10 13 14 12 12 15 17 18 19 20 19 19 20 22 24 25 25 26 27 27 29 30 29 27 27 27 28 31 34 37 38 39 40 41 44 47 50 51 51 50 49 47 46
34 36 34 31 30 30 29 26 23 21 20 18 18 17 14 12 13 15 16 15 14 12 10 9 8 7 6 5 4 3 3 2 2 3 4 3 3 4 5 6 7 8 8 11 14 13 11 13 16 16 18 19 18 18 19 21 22 23 25 26 27 27 27 28 28 28 27 27 27 28 31 34 36 37 38 39 41 44 47 49 49 48 48 47 46
35 36 34 32 31 31 29 26 25 23 20 17 17 16 13 11 12 13 14 13 12 11 10 8 7 6 5 4 4 3 2 2 2 3 3 3 3 3 4 4 5 7 7 9 13 14 12 12 14 16 16 17 17 17 18 20 21 22 25 26 27 27 27 27 27 28 28 27 26 26 28 31 34 35 36 38 39 41 43 46 47 47 46 45 44
36 36 33 32 33 31 28 26 26 23 18 16 17 17 15 12 11 10 10 9 9 10 8 6 5 4 3 3 2 2 1 1 1 2 2 2 2 2 3 4 3 5 6 8 11 13 12 12 14 15 15 16 16 16 17 18 20 22 24 25 27 28 28 28 28 27 27 27 26 25 26 27 30 33 34 35 37 39 40 42 44 44 44 43 42
37 35 33 32 32 29 26 25 23 20 17 18 18 16 13 11 10 10 8 7 8 9 7 5 4 3 2 2 1 0 1 1 1 1 1 2 2 3 3 3 4 5 6 7 10 13 13 13 14 15 15 15 15 15 15 17 18 20 22 24 26 27 28 29 29 28 27 28 27 25 24 24 26 29 32 33 34 35 36 38 40 42 43 42 41
37 34 32 32 31 28 26 25 22 18 17 17 15 13 12 12 12 11 9 7 8 9 8 6 6 6 3 2 3 3 2 3 3 3 3 3 4 5 6 5 4 6 7 7 10 13 13 13 15 15 14 15 15 15 15 16 16 18 20 22 24 26 27 28 29 29 28 28 27 27 26 24 23 26 29 31 32 32 33 35 37 40 42 42 41
34 31 31 32 31 28 28 27 23 19 18 17 15 13 13 14 13 12 9 7 7 7 8 7 7 7 5 3 4 6 5 5 5 5 5 6 6 7 8 7 5 6 8 10 12 13 13 14 15 15 15 15 15 16 16 17 16 16 17 19 21 23 25 26 27 29 29 29 28 27 27 25 23 22 24 27 29 30 31 32 33 35 39 41 41
30 27 29 31 30 26 26 27 24 21 21 20 19 18 16 14 13 13 12 10 9 9 9 10 10 10 7 5 6 9 9 8 8 8 10 10 9 8 8 8 8 8 9 11 13 13 14 15 16 16 15 15 15 15 16 17 18 17 17 17 19 21 23 25 26 27 28 29 29 27 27 26 23 21 21 23 25 27 29 30 30 30 33 36 38
29 27 28 31 28 22 22 24 24 23 22 22 21 20 18 16 14 14 15 14 12 12 12 12 13 13 10 8 8 11 12 11 12 13 14 15 14 11 11 10 9 9 11 13 13 13 15 17 18 17 16 15 15 15 16 17 18 18 18 17 18 19 21 23 25 25 26 27 28 27 27 26 24 21 19 20 21 23 25 27 27 26 27 29 32
28 27 29 31 28 23 21 24 25 24 23 23 22 20 18 16 15 14 16 16 15 14 14 13 12 11 10 9 10 12 13 13 14 15 16 18 17 15 14 12 10 11 13 14 13 13 15 18 19 19 18 16 15 16 16 16 17 18 18 18 18 18 19 21 23 24 24 24 25 26 26 25 24 22 19 17 18 19 21 23 24 24 23 24 26
26 26 28 31 30 25 22 24 25 24 23 24 24 22 19 17 16 16 16 17 17 16 15 14 12 12 12 12 13 13 14 14 15 15 17 18 17 14 12 11 11 12 14 14 13 14 16 19 20 21 20 18 17 16 16 16 17 17 17 18 19 18 19 20 21 23 23 23 23 24 24 24 24 23 20 17 16 16 18 20 21 21 22 23 24
24 22 26 31 30 26 23 23 23 24 23 23 24 24 21 18 17 16 16 16 16 15 15 15 14 14 14 14 14 14 14 14 15 16 17 16 13 10 8 8 9 11 14 15 15 16 17 19 20 21 21 20 19 18 16 16 16 17 17 17 18 19 18 19 20 22 22 23 23 23 23 23 22 22 21 19 17 15 15 16 17 18 19 21 22
23 21 24 29 28 26 25 24 21 21 22 22 23 24 23 19 16 15 15 14 14 15 15 16 16 16 16 16 15 15 15 15 16 16 15 13 10 9 8 7 8 11 14 16 16 16 17 18 20 21 21 21 20 19 17 16 16 16 17 17 18 19 18 18 19 20 21 22 23 22 22 22 21 20 20 20 19 17 15 15 16 16 16 17 19
24 21 25 29 28 26 26 25 21 18 18 18 19 21 22 20 17 16 15 15 14 14 14 14 15 16 17 17 18 18 17 17 16 15 14 13 11 10 9 9 10 13 14 15 15 16 18 19 20 21 20 20 19 19 18 17 16 16 16 16 18 19 18 18 18 19 20 21 22 22 21 21 21 20 19 19 19 17 15 14 14 14 14 15 16
24 21 23 28 30 28 27 26 24 20 17 17 18 19 19 20 19 19 18 18 17 16 15 15 15 15 15 15 16 17 17 16 16 15 14 14 13 12 11 11 12 15 16 16 17 17 18 19 19 18 18 18 19 20 19 18 16 16 15 16 17 19 19 18 18 18 18 20 21 21 21 20 19 19 18 17 17 17 15 13 12 12 13 14 14
24 20 20 25 30 31 29 27 27 24 21 19 20 20 20 20 21 21 21 21 19 18 17 16 16 16 16 15 15 15 15 16 16 15 15 14 13 13 13 13 15 17 18 19 19 19 20 19 19 17 17 19 21 20 19 19 18 18 16 16 17 18 19 19 18 17 17 18 20 20 21 20 19 19 18 17 15 15 15 12 10 9 10 12 12
24 20 18 20 25 29 31 29 27 26 23 21 20 21 20 21 21 20 19 18 17 17 17 17 17 17 17 17 17 17 18 18 18 17 16 16 16 16 17 17 18 19 20 21 22 22 22 21 19 18 19 21 22 21 20 20 21 20 18 17 18 19 20 19 18 17 17 18 19 20 20 20 19 18 18 17 15 14 14 12 10 8 8 9 10
25 21 18 18 18 21 27 29 29 28 26 23 22 21 20 19 19 19 18 17 17 16 16 16 16 17 17 18 18 18 18 18 18 18 18 18 19 19 20 20 19 19 20 22 23 24 25 24 21 19 20 23 23 23 22 22 23 23 22 23 24 24 22 20 19 18 17 17 18 20 20 20 20 18 18 18 17 15 14 12 10 8 8 9 10
26 22 20 19 17 15 18 23 25 26 26 24 21 20 20 19 19 18 18 19 19 19 18 18 17 17 17 17 16 16 16 16 16 17 17 17 18 19 20 21 20 20 20 21 22 22 23 24 23 22 22 23 23 23 23 23 24 24 25 25 27 27 25 21 19 19 18 18 19 20 21 21 20 19 18 18 18 17 16 13 10 9 8 10 12
27 24 21 20 19 16 15 16 18 20 21 21 20 20 20 20 20 20 20 21 20 20 20 19 19 18 18 18 18 18 17 17 17 18 18 19 19 20 21 22 22 21 20 21 21 20 20 21 22 23 24 24 24 24 24 24 25 25 25 26 26 28 27 23 21 20 20 20 20 21 22 21 20 19 19 18 18 18 18 14 10 8 8 10 12
Wind_Direction
152 152 153 156 156 157 158 152 140 129 126 127 131 135 139 140 142 146 147 145 149 158 165 162 157 156 145 128 119 112 118 126 120 111 100 89 83 77 71 67 58 49 44 41 36 27 25 29 31 32 30 26 24 21 19 18 15 14 10 6 7 4 358 350 332 328 336 341 341 341 343 341 340 342 339 336 334 330 327 323 316 306 297 289 284
155 149 144 143 143 140 137 136 135 136 137 140 144 144 143 144 146 148 148 147 155 168 170 160 152 146 132 121 116 114 115 121 124 118 107 95 83 70 61 56 50 47 45 41 36 31 31 34 36 34 31 27 27 24 20 19 15 13 10 6 6 5 0 354 344 333 334 340 343 343 346 345 343 343 343 339 336 334 329 325 321 315 307 299 292
157 147 141 141 139 134 133 135 141 146 147 147 146 144 145 147 148 150 150 153 164 173 165 150 143 137 130 121 117 117 115 117 119 113 108 99 85 69 55 46 46 49 50 42 34 31 30 32 34 34 31 27 25 24 21 18 14 10 7 6 6 6 4 360 351 340 333 335 339 340 341 343 342 342 341 338 336 334 330 326 322 316 310 303 295
151 146 147 148 145 144 147 148 151 152 147 143 141 141 145 146 147 147 148 156 169 167 152 141 139 135 129 119 113 114 112 110 105 99 102 97 87 74 54 44 51 55 54 43 31 28 28 28 30 32 30 25 22 22 20 15 12 8 6 8 9 9 8 6 0 351 339 334 339 342 339 338 338 340 340 337 334 332 330 328 325 319 313 306 298
151 152 153 151 150 153 156 156 158 156 149 145 146 147 148 147 145 145 148 159 166 155 144 140 139 133 124 115 110 108 105 103 98 93 93 90 87 78 55 47 58 59 51 41 31 28 26 26 29 29 25 22 21 19 16 13 11 9 9 11 13 13 11 10 7 2 350 341 344 347 344 340 337 338 339 335 331 330 329 328 326 322 317 310 302
151 150 148 148 151 156 156 154 154 154 151 151 151 151 152 153 152 152 159 168 159 143 140 139 134 125 115 109 105 101 97 97 95 91 87 83 86 83 65 55 63 60 45 38 35 30 27 27 28 25 20 20 21 15 10 12 13 13 14 16 16 15 13 11 8 3 353 344 343 343 342 340 337 336 336 332 329 328 327 326 325 323 320 316 309
146 145 147 151 155 155 153 151 151 151 152 152 152 152 152 152 153 156 164 169 153 138 137 133 125 118 112 107 102 97 94 94 93 92 89 83 83 82 70 61 66 62 44 38 38 32 27 28 26 20 16 19 20 13 9 12 15 17 19 18 17 14 10 9 7 2 356 349 344 341 340 340 338 334 332 331 329 328 327 325 323 322 321 318 313
147 152 155 155 155 153 152 151 152 154 156 157 157 156 151 146 143 145 151 158 149 137 131 126 120 115 110 104 99 96 93 91 92 94 96 93 86 81 71 60 61 60 42 37 39 31 25 25 22 14 13 18 21 17 14 15 16 19 22 20 16 13 9 8 6 2 357 352 349 348 346 345 344 339 335 335 333 330 327 323 319 317 316 314 313
154 160 158 155 153 153 154 155 157 160 161 161 160 158 154 149 144 142 147 154 146 131 125 123 118 113 109 103 100 98 93 89 91 94 100 99 89 81 72 57 54 56 41 32 32 27 22 21 16 10 11 17 21 20 19 19 17 17 19 19 17 12 8 7 7 4 358 352 352 352 349 347 347 344 340 339 336 330 326 322 314 311 311 310 311
162 162 158 156 155 156 157 159 161 162 163 163 162 161 160 157 152 151 156 157 143 128 124 123 115 109 106 101 99 95 87 84 86 92 98 96 90 84 75 58 53 53 35 23 23 21 17 14 9 8 11 16 20 20 20 21 19 16 17 19 17 12 7 6 8 7 1 356 356 354 349 346 346 344 339 336 334 330 326 322 315 311 310 308 308
166 163 160 158 157 158 160 161 161 163 164 164 164 165 165 164 162 161 162 156 140 129 126 121 112 105 99 94 91 84 79 78 80 86 92 90 91 88 77 61 55 53 34 15 15 17 11 6 5 8 10 13 19 22 21 21 20 17 16 19 20 15 10 8 7 6 1 357 357 356 351 346 345 344 340 335 332 328 325 322 317 312 308 304 303
166 162 159 157 157 160 161 163 165 167 169 168 167 167 167 166 166 164 163 156 143 134 127 118 109 102 95 90 87 81 78 76 75 81 85 85 85 82 74 61 49 50 43 15 12 12 5 2 6 8 9 12 19 24 23 19 17 15 13 15 20 19 15 11 7 5 1 356 354 354 352 347 344 344 343 338 332 327 323 320 317 311 305 300 296
161 157 156 156 160 164 166 169 170 171 171 170 168 165 163 163 164 164 161 156 148 137 127 116 107 100 94 88 86 82 79 74 71 72 75 77 79 76 74 64 42 37 36 16 12 6 358 360 7 8 8 15 20 21 21 18 15 15 14 13 16 17 15 11 7 4 2 358 354 353 352 348 344 344 344 340 334 329 325 320 316 310 303 297 293
155 155 156 161 167 170 172 172 171 169 166 163 160 157 156 157 159 160 157 153 151 142 127 116 107 101 95 89 85 83 78 73 67 64 60 62 69 75 83 86 64 40 26 16 11 360 354 359 4 5 9 18 19 16 17 17 15 14 15 14 13 12 10 7 4 1 0 360 357 354 354 351 347 345 345 342 337 332 327 321 316 310 303 297 295
157 159 163 169 172 172 171 168 163 160 157 155 153 151 152 154 154 154 151 146 147 143 128 117 110 103 96 90 86 82 78 72 65 60 55 49 49 61 77 93 96 64 29 27 13 356 356 359 357 0 13 20 17 13 12 13 12 11 12 12 10 9 7 5 2 359 358 359 358 356 355 354 352 350 349 346 340 334 329 324 319 314 308 302 298
162 166 170 174 174 170 165 160 157 156 155 155 154 153 155 155 151 148 145 139 139 135 121 114 109 102 96 91 86 80 77 72 64 56 52 49 46 51 64 82 97 82 39 39 24 359 358 358 352 360 18 22 18 13 9 8 10 9 8 8 7 6 5 3 1 358 357 358 358 356 356 357 355 353 352 350 344 339 333 331 331 325 316 308 302
167 172 174 173 169 164 161 159 158 158 159 158 159 158 156 152 146 142 138 133 129 125 117 110 105 100 96 90 83 78 74 70 64 54 48 48 46 49 60 75 94 93 64 50 41 17 358 351 351 5 20 23 21 16 7 5 7 8 6 5 4 3 2 1 358 354 355 358 358 357 358 359 358 356 355 353 349 344 338 337 339 336 326 314 306
172 174 170 166 162 161 162 165 164 163 162 160 160 157 151 146 142 137 134 129 125 121 116 110 106 102 97 87 80 76 71 67 62 53 45 43 41 42 51 62 80 93 91 50 39 22 353 348 358 13 18 22 24 18 7 2 5 7 4 2 1 360 360 358 354 352 354 358 359 359 0 1 0 358 357 356 353 350 345 342 343 341 333 321 310
172 169 164 161 162 164 167 169 167 163 161 159 157 153 148 143 138 132 128 127 124 121 117 111 105 99 91 82 76 72 67 62 57 49 42 39 38 39 46 52 59 67 56 17 24 26 14 13 20 20 17 19 22 16 5 3 7 7 3 1 0 359 358 356 353 354 358 359 359 359 1 2 2 360 358 358 356 354 352 350 349 345 337 327 318
167 165 163 164 165 167 169 169 167 164 161 156 150 144 140 135 130 126 123 120 120 118 113 107 100 91 84 77 72 67 63 58 53 47 40 36 35 40 46 51 53 53 46 42 46 46 41 35 29 23 18 17 18 13 6 5 9 7 4 3 1 358 355 352 353 359 2 1 0 0 1 3 2 0 359 359 358 357 356 355 354 349 342 333 323
165 165 166 166 166 167 169 168 165 162 158 152 145 139 135 131 130 134 131 121 114 109 104 99 93 84 75 67 64 63 60 56 51 44 38 35 34 39 46 49 53 54 51 53 52 45 39 33 27 23 19 15 13 12 7 5 6 6 4 2 357 355 355 353 355 2 6 5 4 3 3 4 3 1 0 1 1 359 358 358 358 354 348 341 331
168 168 166 166 166 168 169 167 164 161 157 153 149 145 145 146 152 157 147 127 115 106 100 93 84 76 67 57 54 55 56 54 49 41 37 37 35 39 45 47 49 52 51 52 50 42 35 29 24 21 18 14 12 10 6 4 6 6 3 357 351 353 358 358 360 6 10 9 7 6 6 6 3 1 1 2 3 1 0 2 3 359 356 351 339
169 169 167 167 168 170 170 167 164 162 159 155 150 147 147 148 150 148 134 120 113 104 96 88 79 71 60 47 45 50 53 52 47 41 38 39 38 39 44 47 48 49 48 49 47 41 34 29 25 21 17 15 15 13 8 8 9 6 3 359 354 356 1 3 5 11 12 10 9 8 8 7 4 1 1 2 4 3 3 5 7 5 5 4 354
171 171 170 171 171 171 170 167 164 163 158 152 146 141 137 133 128 120 112 109 107 103 98 94 92 87 55 25 34 46 51 51 48 45 42 42 41 40 43 48 52 52 50 49 48 42 35 29 26 21 17 15 17 16 13 14 14 8 4 4 0 359 3 7 10 13 13 12 11 10 9 9 6 3 2 3 5 5 6 8 10 12 13 15 13
174 174 174 174 174 172 169 166 165 163 157 151 147 143 138 133 127 120 114 111 112 116 119 120 123 134 203 344 18 35 43 45 47 48 46 44 43 43 45 51 55 56 55 53 49 43 36 30 26 22 16 14 16 16 13 15 15 8 6 10 6 2 6 10 12 14 14 13 13 12 11 11 9 6 5 6 8 8 8 9 12 16 18 20 22
177 177 176 176 174 171 168 164 161 158 154 150 146 142 138 138 139 139 138 138 139 143 148 155 159 165 205 272 337 24 36 43 50 54 52 48 47 49 53 55 57 58 58 54 49 43 36 30 26 22 16 11 13 15 13 14 15 10 9 13 10 5 8 12 13 14 16 15 14 14 13 13 13 11 10 10 10 10 10 11 13 16 20 21 22
179 179 178 176 173 169 167 163 159 155 151 146 140 136 138 143 147 152 158 161 164 164 168 177 179 176 195 231 251 54 60 57 62 64 60 55 53 56 61 61 60 60 58 53 46 38 32 28 25 20 13 9 11 16 15 14 15 12 11 14 12 8 10 14 15 16 17 16 16 17 16 16 16 14 13 13 13 13 13 14 15 17 20 22 23
181 180 178 175 171 169 167 163 157 151 148 145 145 150 158 161 162 165 169 171 176 179 182 189 190 189 200 220 232 102 97 84 75 73 69 64 60 62 65 62 56 53 51 48 43 35 27 24 21 17 11 8 10 16 17 15 15 13 12 14 13 10 11 14 16 18 20 19 19 19 18 19 19 17 15 15 15 15 14 15 18 20 22 24 24
182 180 176 172 169 169 166 160 154 153 154 154 157 164 170 173 174 177 179 183 189 192 195 201 205 202 208 219 224 148 109 91 82 79 74 68 62 63 66 62 54 47 41 38 37 31 23 19 17 13 10 8 8 12 13 13 14 14 13 13 13 12 13 15 16 18 21 22 22 21 20 19 20 19 17 15 16 16 16 17 19 21 24 27 28
181 177 172 170 170 169 164 158 158 163 165 165 166 170 174 179 184 189 191 194 199 203 209 216 217 207 206 209 198 161 126 96 80 73 68 63 58 59 60 55 47 40 35 30 29 27 19 14 12 10 7 5 6 9 9 8 10 13 13 13 13 12 13 16 17 17 20 23 25 24 22 20 20 20 19 16 16 17 18 19 20 22 25 29 30
178 172 169 170 172 170 164 161 165 170 173 175 178 180 181 185 192 197 201 204 209 213 217 218 206 190 191 191 174 149 125 100 80 69 63 57 51 56 59 53 41 31 26 23 24 26 19 10 7 6 5 4 5 9 9 7 9 13 13 14 14 12 12 16 18 17 19 24 27 26 24 22 21 22 21 19 17 17 18 20 21 23 26 29 31
175 169 169 173 174 170 165 166 171 176 178 184 190 191 191 190 191 195 200 206 209 209 208 206 195 184 184 181 164 144 128 110 87 72 65 58 53 58 62 56 42 29 19 13 15 24 21 7 1 3 4 4 6 10 10 9 11 14 15 15 15 13 11 14 17 19 21 24 27 28 26 24 22 23 24 22 19 18 19 20 21 23 26 29 31
174 170 172 176 173 167 165 170 178 181 183 189 197 201 200 194 186 185 188 190 193 193 192 193 188 181 179 175 161 143 135 122 91 72 65 59 58 62 65 60 43 31 19 5 4 14 16 3 357 359 2 4 6 10 12 13 14 17 18 17 17 15 12 12 14 17 21 26 29 30 29 26 24 24 25 26 24 20 20 20 21 23 26 29 32
175 174 176 176 170 165 166 175 184 186 187 194 200 197 188 176 173 174 173 173 175 175 175 177 175 171 171 171 164 160 154 122 82 66 60 57 58 58 62 64 40 26 22 4 355 359 5 358 353 355 359 2 5 10 14 15 15 18 20 19 18 17 15 13 13 14 18 23 28 31 31 28 26 25 25 27 27 24 21 21 22 23 26 30 34
176 177 179 176 169 166 170 180 187 189 190 189 185 178 169 163 164 168 167 166 168 165 161 159 155 154 165 174 165 141 114 86 53 43 36 32 38 39 45 52 29 10 15 6 347 345 352 353 348 350 355 359 2 7 13 16 17 18 20 20 18 17 16 16 15 14 15 19 24 30 32 30 28 26 26 27 28 27 24 23 23 24 26 29 34
178 179 180 176 170 169 175 183 186 185 182 177 175 177 180 180 176 172 170 171 176 175 170 165 172 178 184 197 208 307 22 347 287 283 331 351 358 354 359 20 10 350 355 357 340 334 339 343 343 346 352 356 358 1 8 15 17 18 19 20 19 17 16 16 15 15 15 15 18 24 30 31 29 27 27 28 31 30 28 26 26 27 27 28 32
180 180 179 175 170 171 176 180 181 181 179 176 180 192 200 192 181 179 180 184 186 186 184 190 209 218 217 229 254 273 308 309 286 277 281 302 325 333 332 336 341 334 334 336 330 327 328 332 336 342 349 353 355 356 1 7 12 16 18 19 18 17 17 16 15 15 15 15 14 18 24 29 31 30 28 28 31 33 31 29 29 31 31 30 31
182 182 181 176 172 175 178 177 176 182 183 182 190 204 205 196 194 199 203 203 202 203 204 213 226 232 234 246 258 260 272 287 293 301 306 300 297 309 320 323 319 317 320 320 318 319 321 323 328 337 344 348 351 353 355 358 3 8 13 17 16 16 16 17 15 14 14 15 14 15 19 24 29 32 32 31 32 34 35 32 30 30 31 32 33
183 184 183 176 174 181 185 178 175 182 185 184 193 204 204 202 205 208 209 214 223 223 221 228 238 241 240 242 246 251 262 278 291 305 317 316 302 287 291 305 309 304 304 306 308 310 313 317 321 330 339 343 345 347 349 352 355 358 2 8 12 12 12 13 14 14 13 13 13 14 16 20 25 29 33 34 33 33 34 34 32 30 30 31 33
185 185 183 177 175 183 185 177 176 183 186 185 191 199 202 205 209 207 205 214 224 226 228 241 251 249 244 241 246 254 265 278 288 298 310 316 310 288 274 286 300 294 290 298 304 302 304 310 317 324 332 338 341 342 344 347 350 351 352 357 4 8 8 7 9 10 11 12 12 11 13 17 20 22 27 33 33 32 32 33 33 31 29 28 30
188 186 184 179 176 178 181 180 182 188 192 192 193 197 203 208 208 203 204 212 219 224 233 246 253 248 243 248 255 262 271 281 289 297 305 310 306 290 270 267 276 281 286 297 302 297 297 305 312 319 325 332 335 336 339 342 344 346 347 348 352 359 2 2 2 4 6 9 10 10 10 13 16 17 19 24 29 31 33 34 34 33 32 29 25
191 189 188 184 179 178 181 185 188 193 196 197 197 197 201 205 206 207 211 217 220 226 234 242 245 244 246 251 255 261 269 277 285 293 299 302 299 286 268 260 261 269 283 296 300 296 295 300 308 316 323 328 330 330 332 335 338 341 342 342 343 348 354 356 356 358 360 3 5 6 7 9 13 15 14 15 20 24 29 32 34 35 35 32 26
196 196 193 188 183 184 186 187 191 197 202 204 204 201 199 202 210 217 221 222 222 224 230 237 241 244 246 250 254 259 264 271 278 286 293 295 288 275 268 266 261 266 282 295 299 297 296 298 306 316 323 327 328 327 326 328 331 334 336 336 337 341 346 349 349 350 353 356 359 1 2 4 7 11 12 12 13 16 20 24 28 30 32 33 30
197 195 192 187 185 189 193 192 194 200 205 209 212 209 204 203 213 224 229 230 230 230 231 233 236 239 243 247 252 257 261 266 272 280 287 290 285 279 281 285 280 280 289 296 298 297 297 299 305 314 322 328 330 329 327 326 326 326 329 330 330 333 340 344 342 343 347 350 352 355 356 357 0 5 8 9 9 11 14 19 22 24 27 28 28
199 192 189 188 188 190 194 195 196 201 205 209 210 208 205 205 210 219 224 227 231 235 237 237 240 245 248 248 249 254 259 264 270 277 282 285 287 289 289 289 287 287 291 293 293 292 293 297 304 312 319 326 329 329 329 329 324 320 321 323 323 325 332 337 337 338 340 343 345 349 351 352 353 357 1 5 6 6 8 14 17 18 20 21 21
204 196 193 195 194 193 192 194 196 200 204 206 205 206 207 210 214 218 221 223 229 236 241 245 249 253 256 255 252 253 258 263 268 274 280 283 283 284 284 284 284 286 288 291 291 290 293 300 308 315 323 329 329 325 324 326 324 320 317 317 316 319 325 329 331 332 335 336 338 342 345 346 346 348 352 358 2 2 2 6 9 10 13 17 17
206 203 201 201 200 198 196 195 195 198 202 205 207 209 213 216 220 225 228 230 234 238 241 244 248 253 258 262 263 263 267 270 273 277 281 281 278 279 280 281 283 285 288 288 288 290 295 301 305 310 320 329 331 328 324 324 325 323 318 314 312 313 317 321 324 325 327 330 332 335 338 341 341 342 343 347 352 356 357 358 359 358 1 7 10
204 202 200 201 202 204 204 201 198 199 202 207 212 216 220 223 226 230 234 237 238 239 239 241 245 249 253 257 261 265 269 273 276 278 278 277 278 280 281 280 283 290 293 291 287 289 293 295 298 304 311 318 325 328 329 329 329 328 324 322 320 317 314 315 318 319 320 324 327 329 331 334 336 335 335 337 340 345 349 351 350 344 341 346 353
204 203 200 197 199 204 207 207 206 204 204 207 213 218 223 227 230 233 238 243 245 247 250 251 251 251 253 256 260 263 265 268 271 274 275 275 276 277 276 275 280 290 296 294 291 290 289 288 290 298 307 313 318 322 323 324 326 325 323 324 326 324 318 313 314 315 315 317 322 324 325 327 329 330 329 330 331 333 337 338 336 331 326 327 333
203 207 207 204 200 199 202 206 208 208 208 210 214 219 224 229 233 235 238 242 244 247 253 257 258 258 259 262 265 266 268 270 272 274 273 273 274 276 277 276 280 288 293 295 296 298 295 289 288 295 305 310 313 313 313 313 315 316 316 318 322 324 320 314 313 317 318 317 318 319 318 319 322 324 324 323 324 326 327 325 322 323 325 323 325
200 207 212 212 209 206 204 205 207 208 209 213 218 222 225 230 235 237 239 242 245 247 249 252 256 259 262 266 269 271 273 275 277 277 277 278 279 281 281 279 277 280 284 287 292 299 300 296 295 298 302 304 305 305 305 305 305 307 309 312 316 321 321 317 314 317 320 319 318 317 314 313 315 317 319 318 319 321 323 318 311 314 326 328 325
Height
1529 1530 1531 1533 1534 1536 1537 1539 1540 1542 1543 1544 1544 1545 1546 1547 1549 1550 1551 1552 1553 1553 1554 1554 1554 1554 1554 1554 1554 1554 1553 1552 1551 1550 1549 1548 1547 1546 1545 1544 1543 1542 1541 1540 1539 1538 1537 1536 1535 1534 1532 1531 1529 1528 1526 1525 1524 1523 1521 1519 1518 1516 1514 1512 1510 1505 1502 1501 1499 1496 1493 1490 1487 1486 1483 1480 1477 1475 1473 1472 1470 1468 1466 1465 1464
1529 1530 1532 1533 1535 1537 1538 1540 1541 1542 1543 1544 1544 1545 1546 1548 1549 1550 1552 1553 1554 1554 1554 1555 1555 1555 1554 1554 1554 1553 1553 1552 1551 1550 1548 1548 1547 1547 1546 1545 1544 1542 1541 1540 1539 1538 1537 1536 1535 1534 1533 1531 1529 1528 1526 1525 1524 1522 1520 1519 1517 1516 1513 1511 1509 1505 1501 1499 1497 1494 1492 1489 1486 1483 1481 1478 1475 1472 1470 1468 1466 1464 1463 1462 1460
1530 1531 1533 1534 1536 1537 1539 1540 1541 1542 1543 1544 1544 1545 1547 1548 1550 1551 1552 1554 1554 1554 1555 1555 1555 1555 1555 1554 1553 1553 1552 1552 1551 1550 1548 1548 1547 1547 1547 1545 1544 1543 1541 1540 1539 1538 1537 1536 1535 1534 1533 1531 1529 1528 1526 1525 1523 1521 1520 1518 1516 1514 1513 1510 1508 1506 1502 1498 1496 1493 1490 1487 1484 1481 1479 1477 1474 1471 1468 1465 1463 1460 1459 1458 1456
1531 1532 1533 1534 1536 1538 1539 1540 1541 1542 1543 1544 1545 1546 1548 1549 1551 1552 1553 1554 1554 1555 1556 1556 1555 1555 1554 1554 1553 1553 1552 1552 1551 1550 1549 1548 1547 1547 1547 1546 1545 1543 1542 1541 1539 1538 1537 1536 1535 1534 1532 1531 1529 1528 1526 1524 1523 1521 1519 1517 1515 1513 1511 1510 1508 1506 1503 1499 1497 1494 1491 1488 1485 1481 1478 1474 1472 1470 1467 1463 1460 1457 1455 1454 1452
1531 1532 1533 1534 1536 1537 1539 1540 1541 1542 1543 1544 1545 1547 1548 1550 1551 1553 1553 1554 1554 1555 1556 1555 1555 1555 1554 1554 1553 1553 1552 1552 1552 1551 1550 1549 1548 1547 1547 1546 1545 1544 1543 1541 1540 1539 1538 1536 1535 1534 1532 1531 1529 1527 1526 1524 1523 1521 1519 1517 1515 1513 1511 1509 1508 1506 1503 1500 1496 1493 1491 1488 1485 1482 1478 1474 1469 1466 1464 1461 1458 1454 1451 1449 1448
1531 1532 1533 1534 1535 1537 1538 1540 1541 1542 1543 1545 1546 1548 1549 1550 1552 1553 1553 1554 1554 1555 1555 1555 1555 1555 1554 1554 1554 1553 1553 1552 1552 1551 1550 1549 1548 1548 1547 1547 1546 1545 1543 1541 1540 1539 1538 1537 1535 1534 1533 1531 1529 1528 1526 1525 1523 1521 1519 1517 1514 1512 1510 1509 1507 1505 1502 1499 1495 1492 1490 1487 1484 1481 1478 1475 1470 1464 1460 1456 1454 1452 1448 1444 1442
1531 1532 1533 1534 1535 1536 1538 1540 1541 1542 1544 1545 1547 1548 1549 1551 1552 1553 1554 1554 1555 1555 1555 1555 1555 1555 1555 1554 1554 1554 1553 1553 1552 1552 1551 1550 1549 1548 1548 1547 1546 1545 1543 1542 1541 1540 1539 1537 1535 1534 1534 1532 1530 1529 1527 1525 1524 1522 1519 1516 1514 1512 1510 1508 1506 1503 1501 1498 1495 1492 1489 1486 1484 1480 1477 1474 1470 1465 1460 1454 1449 1447 1445 1441 1438
1531 1533 1534 1534 1535 1536 1538 1540 1541 1543 1544 1546 1547 1548 1550 1551 1552 1553 1554 1554 1554 1555 1555 1555 1555 1555 1555 1555 1554 1554 1553 1553 1552 1552 1551 1550 1550 1549 1548 1547 1546 1545 1543 1542 1541 1540 1539 1537 1536 1536 1535 1533 1532 1530 1528 1526 1524 1522 1519 1517 1514 1512 1510 1507 1505 1503 1500 1498 1495 1492 1488 1485 1482 1479 1475 1472 1467 1463 1461 1456 1449 1444 1441 1438 1435
1531 1532 1534 1534 1535 1537 1538 1540 1542 1543 1545 1546 1547 1548 1550 1551 1552 1553 1553 1553 1554 1555 1555 1555 1555 1555 1555 1555 1554 1554 1553 1553 1552 1552 1551 1551 1550 1549 1548 1547 1546 1545 1543 1542 1542 1541 1540 1538 1538 1537 1536 1534 1533 1532 1530 1527 1525 1522 1520 1517 1514 1512 1510 1507 1505 1503 1500 1498 1495 1491 1487 1484 1480 1476 1473 1470 1466 1462 1459 1455 1449 1444 1439 1434 1430
1531 1532 1533 1534 1535 1537 1538 1540 1542 1543 1544 1546 1547 1548 1549 1551 1552 1552 1552 1553 1554 1555 1555 1555 1555 1555 1555 1555 1555 1554 1553 1553 1552 1552 1551 1551 1550 1549 1548 1547 1546 1545 1544 1543 1542 1541 1540 1540 1539 1537 1536 1535 1534 1532 1530 1529 1526 1524 1521 1518 1515 1512 1510 1508 1506 1503 1501 1498 1494 1490 1486 1483 1479 1475 1471 1468 1465 1460 1456 1453 1447 1441 1437 1430 1423
1530 1532 1533 1534 1536 1537 1538 1540 1541 1543 1544 1545 1546 1547 1549 1550 1551 1552 1552 1552 1554 1555 1555 1555 1555 1555 1555 1555 1554 1554 1553 1553 1552 1552 1551 1550 1550 1549 1548 1547 1546 1545 1544 1543 1543 1542 1541 1540 1539 1538 1536 1535 1534 1532 1531 1529 1527 1525 1522 1519 1516 1514 1511 1508 1506 1503 1500 1497 1494 1490 1486 1482 1478 1475 1470 1465 1461 1458 1454 1450 1445 1440 1435 1429 1421
1530 1531 1533 1534 1536 1537 1538 1539 1541 1542 1543 1544 1546 1547 1549 1550 1551 1552 1552 1552 1553 1554 1554 1554 1554 1555 1555 1555 1555 1554 1553 1553 1552 1552 1551 1550 1549 1548 1548 1547 1547 1546 1545 1544 1543 1543 1542 1541 1540 1538 1536 1535 1534 1532 1531 1529 1527 1525 1523 1520 1517 1515 1513 1510 1507 1503 1500 1496 1493 1489 1485 1480 1476 1472 1468 1463 1458 1454 1450 1446 1443 1438 1433 1428 1421
1530 1531 1532 1534 1535 1536 1538 1538 1540 1541 1543 1544 1546 1547 1548 1550 1551 1551 1552 1553 1553 1554 1554 1554 1554 1555 1555 1555 1555 1554 1553 1553 1552 1552 1551 1550 1549 1548 1547 1547 1547 1547 1545 1544 1544 1544 1543 1541 1540 1538 1537 1535 1534 1532 1531 1529 1527 1525 1523 1520 1518 1515 1513 1511 1508 1505 1501 1497 1493 1489 1485 1480 1475 1471 1467 1462 1456 1451 1447 1442 1438 1434 1429 1424 1418
1530 1531 1532 1533 1534 1536 1537 1538 1540 1541 1542 1544 1546 1547 1548 1549 1550 1551 1552 1553 1553 1553 1554 1554 1554 1555 1555 1555 1555 1554 1553 1552 1552 1551 1550 1549 1549 1548 1547 1547 1547 1546 1545 1545 1545 1544 1543 1542 1540 1539 1538 1536 1534 1532 1531 1529 1527 1525 1522 1520 1517 1515 1512 1510 1508 1504 1501 1498 1493 1489 1485 1481 1476 1470 1465 1460 1455 1449 1444 1438 1434 1429 1424 1419 1414
1530 1530 1531 1532 1534 1536 1537 1538 1539 1541 1542 1544 1545 1546 1548 1549 1550 1551 1552 1553 1553 1553 1554 1554 1554 1555 1555 1555 1554 1553 1553 1552 1552 1551 1550 1549 1549 1548 1547 1547 1547 1546 1545 1545 1545 1544 1543 1542 1541 1540 1538 1536 1534 1533 1531 1529 1527 1524 1522 1519 1517 1514 1512 1509 1506 1503 1500 1497 1493 1489 1485 1480 1476 1470 1464 1458 1453 1448 1442 1437 1431 1425 1419 1413 1408
1528 1529 1530 1532 1534 1535 1536 1537 1539 1540 1542 1543 1544 1546 1547 1549 1550 1551 1552 1552 1553 1553 1554 1554 1555 1555 1555 1554 1554 1553 1552 1552 1552 1551 1550 1549 1549 1548 1547 1547 1547 1546 1546 1545 1545 1545 1544 1542 1541 1540 1538 1536 1534 1533 1531 1529 1526 1524 1521 1519 1516 1514 1511 1509 1506 1503 1500 1496 1492 1489 1484 1479 1474 1468 1462 1456 1450 1444 1438 1433 1427 1422 1415 1409 1403
1526 1528 1530 1532 1533 1534 1535 1536 1538 1540 1541 1543 1544 1546 1547 1548 1550 1551 1552 1552 1553 1553 1554 1554 1555 1555 1555 1554 1554 1553 1552 1552 1551 1551 1551 1550 1549 1548 1548 1547 1547 1547 1546 1545 1545 1544 1544 1542 1541 1540 1538 1536 1534 1533 1531 1529 1526 1524 1521 1518 1515 1513 1510 1507 1505 1502 1499 1495 1491 1487 1483 1477 1472 1466 1460 1454 1448 1441 1434 1428 1423 1418 1413 1407 1400
1526 1527 1529 1531 1532 1533 1535 1536 1537 1539 1541 1542 1544 1545 1547 1549 1550 1551 1552 1552 1553 1553 1554 1554 1554 1555 1554 1554 1553 1553 1552 1552 1551 1551 1551 1550 1549 1549 1548 1547 1547 1547 1547 1546 1545 1544 1544 1543 1542 1540 1538 1536 1534 1533 1531 1528 1526 1523 1520 1517 1514 1511 1508 1506 1503 1500 1497 1493 1489 1485 1480 1475 1469 1463 1458 1451 1445 1439 1433 1426 1420 1415 1410 1405 1399
1525 1527 1529 1530 1531 1533 1534 1536 1537 1539 1540 1542 1544 1546 1547 1549 1550 1551 1552 1552 1553 1553 1554 1554 1554 1554 1554 1554 1553 1553 1552 1552 1552 1551 1551 1551 1550 1549 1548 1548 1547 1547 1547 1546 1545 1544 1544 1543 1542 1540 1538 1536 1534 1533 1531 1528 1525 1523 1520 1517 1514 1511 1508 1505 1501 1497 1494 1490 1486 1482 1477 1472 1466 1461 1455 1449 1443 1437 1432 1425 1419 1413 1408 1403 1397
1525 1527 1529 1530 1531 1532 1534 1536 1537 1539 1540 1542 1544 1546 1547 1549 1550 1551 1552 1552 1553 1553 1554 1554 1554 1554 1554 1554 1554 1553 1553 1552 1552 1552 1551 1551 1550 1549 1549 1548 1548 1547 1547 1547 1546 1545 1544 1543 1541 1540 1538 1536 1534 1532 1530 1528 1525 1523 1521 1517 1514 1511 1508 1504 1501 1497 1493 1489 1484 1480 1475 1469 1464 1458 1452 1446 1440 1435 1429 1423 1417 1412 1406 1400 1395
1524 1527 1528 1529 1531 1532 1533 1535 1537 1539 1541 1542 1544 1546 1547 1549 1550 1550 1551 1552 1553 1553 1553 1554 1554 1554 1554 1554 1554 1554 1553 1553 1552 1552 1552 1551 1551 1550 1549 1549 1548 1548 1547 1546 1545 1544 1544 1542 1541 1539 1538 1536 1534 1532 1530 1528 1526 1523 1521 1518 1515 1512 1508 1504 1500 1496 1492 1488 1483 1478 1473 1467 1462 1456 1450 1444 1438 1433 1427 1421 1415 1410 1404 1398 1392
1524 1526 1527 1529 1530 1531 1533 1535 1537 1539 1541 1542 1544 1545 1547 1549 1550 1551 1552 1552 1552 1553 1553 1553 1554 1554 1554 1554 1555 1554 1554 1553 1553 1553 1552 1552 1551 1551 1550 1549 1548 1548 1547 1546 1545 1544 1544 1542 1541 1539 1538 1536 1534 1532 1530 1528 1526 1523 1521 1519 1515 1512 1508 1503 1499 1495 1491 1487 1482 1477 1472 1466 1460 1455 1449 1443 1437 1432 1426 1420 1414 1408 1402 1397 1391
1524 1526 1527 1528 1530 1531 1533 1535 1537 1539 1541 1542 1544 1545 1547 1548 1550 1551 1551 1551 1552 1552 1553 1553 1554 1554 1554 1555 1555 1555 1554 1554 1554 1554 1553 1552 1552 1551 1550 1549 1548 1548 1547 1546 1545 1545 1544 1543 1541 1540 1538 1536 1534 1532 1531 1528 1526 1523 1521 1518 1515 1511 1507 1503 1499 1495 1491 1486 1481 1476 1472 1466 1461 1455 1449 1443 1437 1431 1425 1419 1413 1407 1400 1394 1389
1523 1525 1526 1528 1529 1531 1533 1535 1537 1538 1540 1542 1543 1545 1546 1548 1549 1550 1551 1551 1552 1552 1553 1554 1554 1554 1555 1555 1555 1555 1555 1555 1554 1554 1554 1553 1552 1551 1551 1549 1549 1548 1547 1547 1546 1545 1544 1543 1542 1540 1538 1536 1534 1533 1531 1528 1526 1523 1520 1518 1514 1510 1506 1502 1498 1494 1490 1486 1481 1476 1472 1467 1462 1457 1451 1445 1438 1431 1425 1419 1412 1406 1400 1393 1388
1522 1524 1525 1527 1529 1531 1533 1534 1536 1538 1540 1542 1543 1544 1546 1547 1548 1550 1550 1551 1552 1553 1553 1554 1555 1555 1555 1555 1555 1555 1555 1555 1555 1554 1554 1553 1552 1552 1551 1550 1549 1549 1548 1547 1546 1545 1545 1543 1542 1541 1539 1537 1535 1533 1531 1528 1525 1523 1520 1517 1514 1510 1506 1502 1498 1495 1490 1486 1482 1478 1473 1469 1464 1459 1453 1447 1440 1432 1425 1418 1411 1405 1398 1392 1386
1521 1523 1524 1527 1529 1531 1532 1534 1536 1538 1540 1541 1543 1544 1545 1546 1548 1549 1550 1551 1552 1553 1554 1554 1555 1555 1555 1555 1555 1555 1555 1555 1555 1555 1554 1554 1553 1552 1551 1550 1550 1549 1548 1548 1547 1546 1545 1544 1542 1540 1539 1537 1535 1533 1530 1528 1525 1523 1520 1517 1513 1510 1506 1502 1499 1495 1491 1487 1483 1479 1475 1471 1466 1460 1455 1448 1441 1434 1426 1419 1412 1405 1398 1391 1385
1519 1521 1524 1526 1528 1530 1532 1533 1535 1537 1539 1541 1542 1544 1545 1546 1547 1548 1550 1551 1552 1553 1553 1554 1554 1555 1555 1555 1555 1556 1556 1556 1555 1555 1555 1554 1553 1552 1552 1551 1551 1550 1549 1548 1547 1546 1545 1543 1542 1540 1539 1537 1535 1533 1530 1528 1525 1522 1519 1516 1513 1510 1507 1503 1500 1496 1493 1489 1485 1480 1477 1472 1466 1461 1455 1449 1443 1436 1430 1423 1416 1409 1401 1394 1388
1518 1520 1523 1525 1528 1530 1531 1533 1535 1537 1539 1540 1542 1543 1544 1546 1547 1548 1549 1550 1551 1552 1553 1553 1554 1554 1554 1554 1555 1555 1555 1555 1555 1555 1554 1554 1553 1553 1552 1551 1551 1550 1549 1548 1547 1546 1545 1543 1542 1540 1538 1536 1534 1532 1529 1527 1524 1522 1519 1516 1513 1510 1507 1504 1501 1497 1494 1490 1486 1482 1477 1473 1467 1462 1457 1452 1445 1440 1433 1426 1420 1413 1406 1398 1392
1517 1520 1522 1525 1527 1529 1531 1533 1535 1536 1538 1539 1541 1542 1544 1545 1547 1548 1549 1550 1551 1552 1552 1552 1553 1554 1554 1554 1555 1555 1555 1555 1555 1555 1554 1554 1554 1553 1552 1551 1550 1549 1549 1547 1546 1546 1544 1543 1541 1540 1538 1536 1534 1531 1529 1526 1524 1522 1519 1516 1514 1510 1507 1504 1500 1497 1495 1491 1486 1482 1478 1473 1469 1464 1459 1454 1448 1443 1437 1430 1423 1417 1410 1403 1397
1516 1519 1521 1524 1526 1528 1531 1533 1534 1536 1538 1539 1540 1541 1543 1545 1546 1547 1549 1550 1551 1551 1552 1552 1553 1554 1554 1554 1554 1554 1555 1554 1554 1554 1554 1553 1553 1553 1552 1551 1550 1549 1549 1548 1546 1545 1544 1543 1541 1539 1538 1536 1534 1531 1529 1526 1524 1522 1519 1517 1514 1510 1507 1504 1501 1498 1495 1492 1487 1483 1479 1475 1471 1466 1461 1456 1452 1447 1441 1434 1428 1421 1414 1408 1402
1515 1518 1520 1523 1525 1527 1530 1532 1534 1536 1537 1539 1540 1541 1542 1544 1545 1547 1548 1549 1550 1551 1551 1552 1553 1553 1554 1554 1554 1554 1554 1554 1554 1553 1553 1553 1553 1552 1552 1551 1550 1549 1549 1548 1547 1545 1544 1543 1541 1540 1538 1536 1534 1532 1530 1527 1524 1522 1519 1517 1514 1511 1508 1505 1502 1499 1496 1492 1489 1485 1481 1477 1473 1469 1464 1460 1455 1450 1445 1439 1433 1426 1420 1414 1409
1514 1516 1519 1521 1523 1526 1529 1531 1533 1535 1537 1538 1540 1541 1542 1543 1544 1545 1547 1548 1549 1550 1551 1551 1552 1553 1553 1553 1553 1553 1553 1553 1553 1553 1553 1553 1553 1552 1551 1551 1550 1549 1548 1547 1546 1545 1544 1543 1541 1540 1538 1536 1534 1532 1530 1528 1525 1523 1520 1517 1514 1512 1509 1506 1503 1501 1498 1494 1490 1487 1483 1479 1476 1472 1468 1463 1459 1454 1448 1442 1437 1432 1426 1421 1415
1513 1515 1517 1520 1522 1525 1527 1529 1531 1533 1535 1537 1540 1541 1542 1543 1543 1544 1546 1547 1548 1549 1550 1551 1552 1552 1552 1553 1553 1553 1553 1553 1553 1552 1552 1552 1552 1552 1551 1551 1550 1549 1548 1547 1546 1545 1544 1543 1541 1540 1538 1536 1534 1533 1530 1528 1526 1524 1521 1518 1515 1513 1510 1508 1505 1502 1499 1495 1492 1489 1485 1482 1478 1474 1471 1467 1462 1458 1453 1447 1442 1437 1432 1427 1422
1512 1513 1515 1518 1521 1524 1526 1527 1529 1531 1534 1536 1538 1540 1541 1542 1543 1544 1545 1546 1547 1548 1549 1550 1551 1551 1552 1552 1552 1552 1552 1552 1552 1552 1552 1552 1551 1551 1551 1550 1549 1549 1548 1547 1546 1545 1544 1543 1541 1540 1538 1537 1535 1533 1531 1529 1527 1524 1522 1519 1517 1514 1512 1509 1506 1503 1500 1497 1494 1491 1488 1485 1481 1477 1473 1469 1466 1462 1457 1453 1448 1443 1438 1434 1430
1510 1512 1514 1517 1520 1522 1524 1526 1528 1531 1533 1535 1537 1539 1541 1542 1543 1544 1545 1545 1546 1548 1549 1550 1550 1551 1551 1552 1552 1552 1552 1551 1551 1551 1551 1551 1551 1550 1550 1549 1549 1548 1547 1546 1545 1545 1543 1542 1541 1540 1538 1536 1535 1533 1531 1529 1527 1525 1522 1520 1518 1515 1512 1509 1507 1504 1501 1498 1495 1492 1490 1487 1484 1480 1477 1473 1469 1465 1461 1458 1453 1449 1445 1441 1437
1509 1512 1514 1517 1519 1522 1524 1526 1528 1530 1533 1535 1537 1539 1540 1541 1542 1543 1544 1545 1546 1547 1548 1549 1550 1550 1551 1551 1551 1551 1551 1551 1551 1551 1550 1550 1550 1550 1549 1549 1548 1547 1546 1545 1545 1544 1543 1542 1540 1539 1538 1536 1535 1533 1531 1529 1527 1525 1523 1521 1518 1516 1513 1510 1508 1505 1502 1499 1497 1494 1491 1489 1486 1483 1479 1476 1472 1469 1466 1463 1459 1455 1451 1447 1443
1509 1512 1514 1517 1519 1521 1523 1525 1527 1529 1532 1534 1536 1537 1539 1540 1541 1542 1543 1544 1545 1546 1547 1548 1548 1549 1550 1550 1550 1550 1550 1550 1550 1550 1550 1549 1549 1548 1548 1547 1547 1546 1545 1545 1544 1543 1542 1541 1540 1539 1537 1536 1535 1533 1531 1530 1528 1526 1524 1522 1519 1517 1515 1512 1509 1506 1503 1501 1498 1495 1492 1490 1488 1485 1482 1479 1475 1472 1469 1466 1463 1460 1456 1452 1448
1510 1513 1515 1517 1519 1520 1522 1524 1525 1528 1530 1533 1535 1536 1537 1539 1540 1541 1542 1543 1544 1545 1546 1547 1547 1548 1548 1549 1549 1549 1549 1549 1549 1549 1549 1548 1548 1547 1547 1546 1546 1545 1544 1544 1543 1542 1541 1540 1539 1538 1537 1536 1534 1533 1531 1529 1528 1526 1524 1522 1520 1518 1516 1513 1511 1508 1505 1502 1499 1497 1494 1492 1489 1487 1485 1482 1479 1476 1473 1470 1467 1464 1461 1458 1454
1511 1514 1516 1518 1519 1520 1521 1522 1524 1527 1529 1532 1534 1535 1536 1537 1538 1539 1541 1542 1543 1544 1545 1545 1546 1546 1547 1547 1548 1547 1547 1547 1547 1547 1547 1547 1546 1546 1545 1545 1544 1544 1543 1543 1542 1541 1540 1539 1538 1537 1536 1535 1534 1532 1531 1529 1527 1526 1524 1522 1520 1518 1516 1514 1511 1509 1506 1503 1501 1498 1496 1493 1491 1489 1487 1485 1482 1479 1477 1474 1471 1468 1466 1463 1460
1510 1513 1516 1518 1519 1520 1521 1522 1524 1527 1529 1531 1533 1534 1535 1536 1537 1538 1539 1540 1541 1542 1543 1544 1544 1545 1545 1546 1546 1546 1546 1546 1546 1546 1545 1545 1545 1544 1544 1543 1543 1542 1542 1542 1541 1540 1539 1538 1537 1536 1536 1534 1533 1532 1530 1529 1527 1525 1524 1522 1520 1518 1516 1514 1512 1510 1508 1505 1503 1500 1498 1495 1493 1491 1489 1487 1485 1482 1480 1478 1475 1473 1470 1468 1466
1509 1512 1515 1517 1519 1519 1520 1522 1524 1526 1528 1530 1532 1533 1534 1535 1536 1538 1539 1539 1540 1541 1542 1542 1543 1543 1543 1544 1544 1544 1544 1544 1544 1544 1543 1543 1543 1542 1542 1541 1541 1541 1541 1540 1540 1539 1538 1537 1536 1535 1534 1533 1532 1531 1530 1528 1527 1525 1523 1521 1520 1518 1517 1515 1513 1511 1509 1506 1504 1502 1499 1497 1494 1492 1490 1488 1487 1485 1483 1481 1478 1476 1474 1472 1470
1510 1512 1514 1516 1517 1517 1518 1520 1523 1525 1527 1529 1531 1532 1533 1534 1535 1536 1537 1538 1539 1540 1540 1541 1541 1541 1542 1542 1542 1543 1543 1542 1542 1542 1542 1541 1541 1540 1539 1539 1540 1539 1539 1539 1538 1537 1537 1536 1535 1534 1533 1532 1531 1530 1529 1527 1526 1524 1523 1521 1519 1517 1516 1515 1513 1511 1509 1507 1505 1503 1501 1499 1496 1494 1492 1490 1488 1486 1485 1483 1481 1479 1477 1475 1473
1509 1512 1514 1515 1516 1516 1517 1519 1521 1523 1526 1528 1529 1531 1532 1533 1534 1535 1536 1536 1537 1538 1538 1539 1539 1540 1540 1540 1541 1541 1541 1541 1541 1541 1540 1540 1539 1538 1538 1538 1538 1538 1538 1537 1536 1536 1535 1534 1533 1533 1532 1531 1530 1529 1527 1526 1525 1523 1522 1520 1519 1517 1515 1514 1513 1511 1510 1508 1506 1504 1502 1500 1497 1495 1493 1491 1489 1488 1486 1484 1482 1481 1479 1477 1475
1508 1510 1513 1515 1516 1516 1517 1518 1520 1522 1524 1526 1528 1529 1530 1531 1532 1533 1534 1534 1535 1536 1537 1537 1538 1538 1538 1538 1538 1539 1539 1539 1539 1539 1539 1538 1538 1537 1537 1536 1536 1536 1536 1535 1535 1534 1533 1532 1532 1531 1530 1529 1528 1527 1526 1525 1524 1522 1521 1519 1518 1516 1515 1513 1512 1511 1509 1508 1506 1504 1502 1500 1498 1496 1494 1492 1490 1489 1487 1485 1484 1482 1481 1479 1477
1507 1508 1510 1513 1515 1516 1516 1517 1518 1520 1522 1524 1526 1527 1529 1530 1531 1531 1532 1533 1533 1534 1535 1535 1536 1536 1536 1536 1537 1537 1537 1537 1537 1537 1537 1536 1536 1535 1535 1534 1534 1534 1534 1534 1533 1532 1531 1530 1530 1529 1528 1527 1526 1525 1524 1523 1522 1521 1520 1518 1517 1515 1514 1513 1511 1510 1508 1507 1506 1504 1502 1501 1499 1497 1495 1493 1491 1489 1488 1486 1485 1483 1482 1480 1479
1505 1507 1508 1510 1512 1514 1515 1516 1517 1519 1521 1522 1524 1525 1527 1528 1529 1529 1530 1531 1532 1532 1533 1533 1533 1534 1534 1534 1534 1534 1535 1535 1535 1535 1534 1534 1534 1533 1533 1532 1532 1532 1532 1531 1531 1530 1529 1528 1528 1527 1526 1525 1524 1523 1522 1521 1520 1519 1518 1517 1516 1514 1513 1512 1510 1509 1508 1506 1505 1503 1502 1501 1499 1497 1495 1493 1492 1490 1489 1487 1486 1484 1483 1481 1480
1504 1506 1507 1509 1510 1512 1513 1514 1516 1518 1519 1521 1522 1524 1525 1526 1527 1528 1528 1529 1530 1530 1530 1531 1531 1531 1531 1532 1532 1532 1532 1532 1532 1532 1532 1532 1531 1531 1531 1530 1530 1530 1529 1529 1528 1527 1527 1526 1525 1525 1524 1523 1522 1521 1520 1519 1518 1517 1516 1515 1514 1513 1511 1510 1509 1508 1506 1505 1504 1503 1501 1500 1498 1497 1495 1494 1492 1491 1489 1488 1486 1485 1483 1482 1480
1503 1505 1506 1507 1509 1510 1512 1513 1514 1516 1517 1519 1521 1522 1523 1524 1525 1525 1526 1527 1527 1528 1528 1528 1529 1529 1529 1529 1530 1530 1530 1530 1529 1529 1529 1529 1529 1528 1528 1528 1528 1527 1527 1526 1525 1525 1524 1524 1523 1522 1521 1521 1520 1519 1518 1517 1517 1516 1514 1513 1512 1511 1510 1508 1507 1506 1505 1504 1503 1501 1500 1499 1498 1496 1495 1493 1492 1490 1489 1488 1486 1485 1484 1482 1481
1502 1503 1505 1506 1507 1508 1510 1511 1512 1514 1515 1517 1519 1520 1521 1522 1522 1523 1524 1524 1525 1525 1526 1526 1526 1527 1527 1527 1527 1528 1528 1527 1527 1527 1527 1526 1526 1526 1526 1526 1525 1525 1524 1523 1523 1522 1521 1521 1521 1520 1519 1518 1517 1517 1516 1515 1514 1513 1512 1511 1510 1509 1508 1507 1505 1504 1504 1502 1501 1500 1499 1498 1496 1495 1494 1493 1491 1490 1488 1487 1486 1485 1484 1482 1481
1500 1502 1503 1505 1506 1507 1508 1509 1511 1512 1514 1515 1517 1518 1519 1520 1520 1521 1521 1522 1522 1523 1523 1524 1524 1524 1525 1525 1525 1525 1525 1525 1525 1524 1524 1524 1524 1524 1523 1523 1523 1522 1522 1521 1521 1520 1519 1518 1518 1517 1516 1516 1515 1514 1513 1512 1512 1511 1510 1509 1507 1506 1505 1504 1503 1502 1501 1500 1499 1498 1497 1496 1495 1494 1493 1491 1490 1489 1488 1486 1485 1484 1483 1482 1481
1499 1500 1502 1503 1504 1505 1507 1508 1509 1510 1512 1513 1515 1516 1517 1517 1518 1519 1519 1520 1520 1521 1521 1521 1521 1522 1522 1522 1522 1522 1522 1522 1522 1522 1522 1521 1521 1521 1521 1520 1520 1519 1519 1518 1518 1517 1516 1516 1515 1514 1513 1512 1512 1511 1510 1509 1508 1507 1506 1505 1504 1503 1503 1502 1501 1500 1499 1498 1497 1496 1495 1494 1493 1492 1491 1490 1489 1488 1486 1485 1484 1483 1482 1481 1480